Location: Anuling
(14.1239°N, 120.8922°E)
Time: 15:00:18
(UTC+00:00)

Cosmos 1953 - Visible Passes

Search period start: 19 April 2026 00:00
Search period end: 29 April 2026 00:00
Orbit: 471 x 485 km, 82.5° (Epoch: 19 April)

Date Brightness Start Highest point End Pass type
(mag) Time Alt. Az. Time Alt. Az. Time Alt. Az.
20 Apr 6.0 10:49:05 10° W 10:49:53 11° W 10:50:41 10° WNW visible
20 Apr 5.3 20:51:46 10° NE 20:54:18 18° E 20:56:49 10° SE visible
23 Apr 2.2 21:05:27 10° N 21:09:05 79° E 21:12:44 10° S visible
24 Apr 3.8 20:39:01 10° NNE 20:42:24 36° E 20:45:46 10° SSE visible
25 Apr 5.0 20:13:05 10° NE 20:15:41 18° E 20:18:15 10° SE visible
27 Apr 2.3 20:53:30 10° NNW 20:56:59 44° W 21:00:27 10° SSW visible
28 Apr 2.1 20:26:38 10° N 20:30:17 82° E 20:33:54 10° S visible
